{"data":{"norad_id":62584,"intl_designator":"2025-007K","name":"CENTISPACE-1 S15","alt_names":[],"object_type":"PAYLOAD","status":"ACTIVE","operator":null,"country":"PRC","launch_date":"2025-01-13","launch_site_code":"YSLA","launch_vehicle":null,"mission":null,"orbit_class":"UNKNOWN","rcs_meters":null,"size_class":null,"mass_kg":null,"dimensions":null,"purposes":[],"wikipedia_slug":null,"has_3d_model":false,"image_url":null,"decayed_at":null,"tle_current":{"epoch":"2026-09-22T19:01:07.720608Z","epoch_age_seconds":119300,"freshness":"FRESH","line1":"1 62584U 25007K   26265.79245047 -.00000051  00000+0  84663-4 0  9995","line2":"2 62584  54.9873 311.2934 0011602 266.0354  93.9276 13.80585043 88214","mean_motion":13.80585043,"eccentricity":0.0011602,"inclination_deg":54.9873,"raan_deg":311.2934,"arg_perigee_deg":266.0354,"mean_anomaly_deg":93.9276,"bstar":8.4663e-5,"rev_number":8821,"period_min":104.30360717735,"perigee_km":953.29657920909,"apogee_km":970.32819777014,"semimajor_km":7339.9493884896,"source":"CELESTRAK","updated_at":"2026-09-23T09:00:21.491274Z"}}}